This is the latest recevied weather packets stored in our database for station/object N7ZEF. If no packets are shown the sender has not sent any weather packets the latest 10 day(s).
| Time | Temp. | Humidity | Pressure | Rain* | Wind** | Luminosity | Snow |
|---|---|---|---|---|---|---|---|
| 1777589465 | 7.78° C | 43% | 1022 hPa | 0 mm | - | - | - |
| 1777588863 | 7.78° C | 42% | 1022 hPa | 0 mm | - | - | - |
| 1777588262 | 8.33° C | 42% | 1022 hPa | 0 mm | - | - | - |
| 1777587661 | 7.78° C | 43% | 1022.1 hPa | 0 mm | - | - | - |
| 1777587059 | 7.78° C | 42% | 1022.1 hPa | 0 mm | - | - | - |
| 1777586458 | 8.33° C | 42% | 1022.2 hPa | 0 mm | - | - | - |
| 1777585856 | 7.78° C | 44% | 1022.2 hPa | 0 mm | - | - | - |
| 1777585255 | 7.78° C | 44% | 1022.3 hPa | 0 mm | - | - | - |
| 1777584654 | 7.78° C | 45% | 1022.5 hPa | 0 mm | - | - | - |
| 1777584052 | 7.22° C | 44% | 1022.5 hPa | 0 mm | - | - | - |
| 1777583451 | 7.22° C | 45% | 1022.5 hPa | 0 mm | - | - | - |
| 1777582850 | 7.78° C | 46% | 1022.6 hPa | 0 mm | - | - | - |
| 1777582248 | 7.78° C | 48% | 1022.6 hPa | 0 mm | - | - | - |
| 1777581647 | 7.22° C | 49% | 1022.6 hPa | 0 mm | - | - | - |
| 1777581045 | 7.78° C | 46% | 1022.6 hPa | 0 mm | - | - | - |
| 1777580444 | 7.78° C | 48% | 1022.6 hPa | 0 mm | - | - | - |
| 1777579843 | 7.78° C | 49% | 1022.6 hPa | 0 mm | - | - | - |
| 1777579241 | 7.78° C | 50% | 1022.6 hPa | 0 mm | - | - | - |
| 1777578640 | 7.22° C | 52% | 1022.9 hPa | 0 mm | - | - | - |
| 1777578039 | 7.22° C | 52% | 1022.9 hPa | 0 mm | - | - | - |
| 1777577437 | 7.22° C | 54% | 1023 hPa | 0 mm | - | - | - |
| 1777576836 | 6.67° C | 54% | 1022.9 hPa | 0 mm | - | - | - |
| 1777576234 | 6.67° C | 55% | 1023.1 hPa | 0 mm | - | - | - |
| 1777575633 | 6.67° C | 57% | 1023.2 hPa | 0 mm | - | - | - |
| 1777575032 | 6.67° C | 55% | 1023.2 hPa | 0 mm | - | - | - |
* Rain latest hour (hover to see other rain measurements)
** Current wind speed in m/s (hover to see current wind gust speed)